Track COSMOS 2147 now! 10-day predictions COSMOS 2147 is classified as:
1 21303U 91033E 19051.91520667 +.00000009 +00000-0 -64854-5 0 9999 2 21303 082.5678 192.5819 0017799 330.3229 146.4083 12.65086211282119